Location: Argonnex
(45.9500°N, 6.1333°E)
Time: 01:09:26
(UTC+00:00)

Cosmos 1844 Rocket - Pass Details

Date: 28 January 2023
Orbit: 825 x 843 km, 71.0° (Epoch: 24 March)

Event Time Altitude Azimuth Distance (km) Brightness Sun altitude
Rises 17:41:03 0° 341° (NNW) 3,378 5.9 -11.7°
Reaches altitude 10° 17:44:12 10° 359° (N) 2,439 5.0 -12.2°
Maximum altitude 17:48:11 20° 44° (NE) 1,855 4.0 -12.9°
Enters shadow 17:49:40 18° 65° (ENE) 1,946 4.0 -13.1°
